[[{"header":{"parameterUnit":"m.s-1","parameterCategory":1,"la1":30.2991,"la2":30.254,"lo1":-89.0895,"lo2":-89.0444,"dy":0.0017,"dx":0.0017,"nx":28,"ny":28,"refTime":"2025-05-16T03:00:00:Z","depth":0,"parameterNumber":2,"parameterNumberName":"U-component_of_WINDS"},"data":[0,0,0,0,0,0,0,0,0,0,0,0,0,0,0,0,0,0,0,0,0,0,0,0,0,0,0,0,0,0,0,0,0,0,0,0,0,0,0,0,0,0,0,0,0,0,0,0,0,0,0,0,0,0,0,0,0,0,0.5717,0.5718,0,0.5807,0.5808,0.5809,0.5814,0.5813,0.5812,0.5811,0.5905,0.5908,0.5912,0,0,0,0,0,0,0,0,0,0,0,0,0,0.555,0.5553,0.5717,0.5718,0.5719,0.5807,0.5809,0.581,0.5814,0.5813,0.5811,0.581,0.5904,0.5908,0.5912,0,0,0,0,0,0,0,0,0,0,0,0,0,0.563,0.5554,0.5717,0.5732,0.5734,0.5807,0.5809,0.581,0.5814,0.5813,0.5811,0.581,0.5902,0.5907,0.5912,0.5977,0,0,0.5928,0.5931,0,0,0,0,0,0,0,0,0.5625,0.5636,0.5729,0.5731,0.5734,0.5798,0.5784,0.5866,0.5815,0.5784,0.5811,0.5809,0.5871,0.5878,0.5899,0.5981,0.5985,0.5929,0.5932,0.5934,0.5936,0,0,0,0,0,0,0,0.562,0.5632,0.5753,0.573,0.5733,0.5735,0.5744,0.58,0.5835,0.5786,0.5787,0.5798,0.5872,0.5894,0.5901,0.5987,0.5929,0.5933,0.5937,0.5939,0.6127,0.6128,0,0,0,0,0,0,0.5611,0.5627,0.575,0.5756,0.5674,0.5739,0.575,0.5779,0.5835,0.5841,0.5799,0.5797,0.5885,0.5895,0.5904,0.5983,0.5934,0.5939,0.5942,0.6125,0.6127,0.6129,0,0,0,0,0,0,0.5607,0.5622,0.5746,0.5692,0.5708,0.5744,0.5776,0.5781,0.5803,0.5844,0.585,0.5815,0.5885,0.5897,0.5959,0.5987,0.5942,0.5946,0.6123,0.6125,0.6128,0.6142,0,0,0,0,0,0,0.5603,0.5621,0.5645,0.5692,0.5711,0.5799,0.5778,0.5784,0.5812,0.5811,0.586,0.5867,0.5884,0.5951,0.5964,0.5993,0.595,0.612,0.6124,0.6127,0.6139,0.6145,0.615,0,0,0,0,0,0.5597,0.5646,0.5646,0.5661,0.5742,0.58,0.5811,0.5829,0.5815,0.584,0.5866,0.5866,0.5981,0.5957,0.5972,0.6003,0.6119,0.6123,0.6127,0.6137,0.6144,0.615,0,0,0,0,0,0,0.5601,0.5652,0.5653,0.5719,0.5755,0.5801,0.5833,0.5836,0.5878,0.5875,0.5897,0.5908,0.5969,0.5992,0.5964,0.6068,0.6048,0.6056,0.6051,0.6058,0.6063,0.6056,0.5955,0,0,0,0,0,0.561,0.5653,0.5695,0.5749,0.5767,0.5797,0.5823,0.5834,0.5873,0.5888,0.5919,0.5957,0.6002,0.6031,0.6075,0.6142,0.6154,0.6171,0.6177,0.6181,0.6187,0.6225,0.6233,0.6143,0.6143,0.6142,0,0,0.5628,0.5661,0.5687,0.5751,0.578,0.5825,0.581,0.5857,0.5891,0.5896,0.5956,0.598,0.6023,0.6088,0.6119,0.611,0.6214,0.6186,0.6189,0.6193,0.623,0.6239,0.6246,0.6145,0.6145,0.6144,0,0,0.5684,0.5713,0.5761,0.5791,0.5836,0.5856,0.5867,0.5913,0.5928,0.5989,0.5994,0.6034,0.6111,0.6142,0.6168,0.6236,0.6238,0.625,0.6278,0.6314,0.6321,0.6328,0.6352,0.6361,0.6256,0.6256,0.6256,0,0.5701,0.5768,0.5786,0.5834,0.5862,0.5868,0.5917,0.5945,0.6002,0.6022,0.6011,0.6108,0.6137,0.621,0.6227,0.6247,0.6262,0.6244,0.6319,0.6325,0.6332,0.6356,0.6365,0.6257,0.6257,0.6257,0.6256,0,0.5787,0.5833,0.5867,0.5921,0.5953,0.6002,0.6027,0.6058,0.6066,0.6087,0.6149,0.6185,0.6236,0.6254,0.6262,0.6328,0.6321,0.6314,0.6295,0.6341,0.6364,0.6373,0.6259,0.6258,0.6258,0.6257,0,0,0.5849,0.5912,0.5924,0.5949,0.5999,0.6036,0.6084,0.6134,0.616,0.6199,0.624,0.6305,0.63,0.6329,0.6341,0.6373,0.6425,0.6363,0.6364,0.6373,0.65,0.6505,0.6515,0.6427,0.6428,0.643,0.6497,0,0.591,0.5997,0.6015,0.609,0.6133,0.614,0.6182,0.6218,0.6238,0.6279,0.6302,0.6348,0.6336,0.6354,0.6386,0.6412,0.6451,0.6408,0.6466,0.6468,0.6455,0.6527,0.6533,0.6594,0.6506,0.6507,0.6508,0,0.5994,0.6035,0.6114,0.6159,0.6177,0.6215,0.6262,0.6301,0.6341,0.6354,0.6387,0.6396,0.6447,0.6425,0.6496,0.6466,0.6491,0.6508,0.651,0.6517,0.6491,0.6536,0.6614,0.6623,0.6522,0.6521,0.652,0,0.6031,0.6106,0.6163,0.6184,0.6238,0.6264,0.6288,0.6327,0.6355,0.6397,0.6416,0.6462,0.6488,0.6524,0.6546,0.6527,0.6616,0.6595,0.6629,0.6628,0.6647,0.6646,0.6731,0.6663,0.6662,0.6662,0.6662,0,0.6098,0.6147,0.6181,0.6216,0.6271,0.6291,0.6344,0.6368,0.6402,0.6443,0.6451,0.6489,0.6514,0.6556,0.6573,0.663,0.6641,0.6654,0.6658,0.6653,0.6652,0.667,0.6666,0.6665,0.6664,0.6664,0.6663,0,0.6149,0.6174,0.6237,0.6282,0.6295,0.6333,0.6372,0.6407,0.6428,0.6478,0.6492,0.6525,0.6574,0.6599,0.666,0.6671,0.6736,0.6737,0.6722,0.6724,0.6756,0.6752,0.6856,0.687,0.6792,0.6793,0.6794,0,0.6191,0.6228,0.6277,0.6305,0.6329,0.6373,0.6402,0.6424,0.6454,0.6503,0.6532,0.6582,0.6623,0.6701,0.6731,0.6778,0.6781,0.6814,0.6788,0.6782,0.6782,0.6779,0.6783,0.6818,0.6819,0.682,0.682,0,0.6262,0.6272,0.6314,0.6361,0.6396,0.6433,0.647,0.6493,0.652,0.6554,0.6604,0.6636,0.6698,0.6748,0.6797,0.6821,0.6826,0.6828,0.6838,0.6834,0.6824,0.683,0.6735,0.6825,0.6825,0.6825,0.6824,0.6824,0.6309,0.6343,0.6383,0.643,0.646,0.6495,0.653,0.6555,0.6597,0.665,0.666,0.6713,0.6753,0.682,0.6846,0.6888,0.6881,0.6896,0.69,0.6903,0.6905,0.6817,0.6897,0.6897,0.6897,0.6897,0.6897,0,0.6381,0.6407,0.645,0.6502,0.6539,0.6539,0.658,0.6611,0.6658,0.6695,0.6735,0.6793,0.6841,0.6874,0.6923,0.695,0.6954,0.6963,0.6961,0.6967,0.6908,0.6895,0.6959,0.6959,0.6959,0.6959,0.6959,0.6959,0.6423,0.648,0.6495,0.6568,0.6594,0.6646,0.667,0.6702,0.6731,0.6796,0.6835,0.6857,0.6893,0.6944,0.6988,0.6997,0.7014,0.7024,0.7032,0.6977,0.6971,0.6964,0.6952,0.7027,0.7027,0.7087,0.7088,0.7088]},{"header":{"parameterUnit":"m.s-1","parameterCategory":1,"la1":30.2991,"la2":30.254,"lo1":-89.0895,"lo2":-89.0444,"dy":0.0017,"dx":0.0017,"nx":28,"ny":28,"refTime":"2025-05-16T03:00:00:Z","depth":0,"parameterNumber":3,"parameterNumberName":"V-component_of_WINDS"},"data":[0,0,0,0,0,0,0,0,0,0,0,0,0,0,0,0,0,0,0,0,0,0,0,0,0,0,0,0,0,0,0,0,0,0,0,0,0,0,0,0,0,0,0,0,0,0,0,0,0,0,0,0,0,0,0,0,0,0,4.9211,4.921,0,4.9174,4.9173,4.9173,4.9102,4.9101,4.91,4.9098,4.9062,4.9062,4.9063,0,0,0,0,0,0,0,0,0,0,0,0,0,4.9222,4.9222,4.9211,4.921,4.921,4.9174,4.9173,4.9173,4.9103,4.9101,4.9099,4.9098,4.9062,4.9062,4.9063,0,0,0,0,0,0,0,0,0,0,0,0,0,4.9204,4.9222,4.9211,4.917,4.9166,4.9174,4.9173,4.9173,4.9103,4.9101,4.9099,4.9097,4.9062,4.9062,4.9063,4.9107,0,0,4.9064,4.9064,0,0,0,0,0,0,0,0,4.9205,4.9204,4.9177,4.9173,4.9169,4.914,4.9164,4.9151,4.9103,4.9127,4.9098,4.9096,4.909,4.9088,4.9086,4.9105,4.9104,4.9064,4.9065,4.9065,4.9065,0,0,0,0,0,0,0,4.9207,4.9205,4.9196,4.9176,4.9172,4.9155,4.915,4.9161,4.9121,4.9125,4.912,4.9116,4.9087,4.9085,4.9084,4.9103,4.9064,4.9065,4.9065,4.9065,4.9158,4.916,0,0,0,0,0,0,4.9214,4.9207,4.9197,4.9195,4.9182,4.9156,4.9151,4.9152,4.912,4.9113,4.9118,4.9113,4.9086,4.9084,4.9083,4.9133,4.9065,4.9065,4.9065,4.9156,4.9159,4.9161,0,0,0,0,0,0,4.9214,4.9213,4.9199,4.9199,4.9196,4.9158,4.916,4.9152,4.915,4.9115,4.9108,4.9123,4.9084,4.9082,4.9102,4.913,4.9065,4.9066,4.9153,4.9157,4.916,4.9233,0,0,0,0,0,0,4.9215,4.9214,4.923,4.92,4.9196,4.9218,4.9162,4.9153,4.9151,4.9144,4.9118,4.9112,4.9082,4.9101,4.9102,4.913,4.9066,4.9151,4.9155,4.9159,4.9228,4.9239,4.9248,0,0,0,0,0,4.9215,4.9253,4.9231,4.9231,4.9216,4.922,4.9218,4.9182,4.9153,4.917,4.9147,4.9113,4.9127,4.9104,4.9104,4.9133,4.9149,4.9154,4.9158,4.9224,4.9237,4.9247,0,0,0,0,0,0,4.9287,4.9248,4.9224,4.9252,4.924,4.9208,4.9227,4.9197,4.9193,4.9187,4.9143,4.9138,4.9164,4.915,4.9125,4.9174,4.9132,4.9138,4.9182,4.9194,4.9204,4.9206,4.9067,0,0,0,0,0,4.9307,4.9313,4.9278,4.9307,4.9302,4.9266,4.9266,4.924,4.9225,4.922,4.9199,4.9187,4.9188,4.919,4.919,4.9226,4.9219,4.9246,4.9255,4.9264,4.9269,4.9287,4.9298,4.9177,4.9177,4.9177,0,0,4.9346,4.9325,4.9332,4.9321,4.9308,4.9316,4.9262,4.9272,4.9278,4.9222,4.9239,4.9223,4.9206,4.9234,4.9246,4.9224,4.9301,4.927,4.9277,4.9277,4.9293,4.9305,4.9315,4.918,4.918,4.9179,0,0,4.9423,4.9407,4.943,4.9418,4.9399,4.9375,4.9381,4.9353,4.934,4.9357,4.9315,4.9321,4.9325,4.9315,4.931,4.9383,4.9351,4.9384,4.9435,4.9454,4.9463,4.9472,4.9498,4.9508,4.9389,4.939,4.939,0,4.9475,4.9484,4.9445,4.9458,4.9455,4.9404,4.9426,4.9417,4.9399,4.9398,4.9374,4.9378,4.9363,4.9388,4.9406,4.9404,4.9409,4.9387,4.9465,4.9473,4.948,4.9505,4.9515,4.9394,4.9393,4.9393,4.9392,0,4.9549,4.9556,4.9577,4.956,4.9559,4.9577,4.9541,4.9545,4.9519,4.9497,4.9515,4.9495,4.949,4.9494,4.9469,4.9516,4.9503,4.9473,4.943,4.9496,4.9519,4.9528,4.94,4.9398,4.9397,4.9396,0,0,4.967,4.9632,4.964,4.9632,4.9607,4.9613,4.9629,4.9623,4.9627,4.9617,4.9629,4.9634,4.9605,4.96,4.9574,4.959,4.9649,4.9557,4.9556,4.9575,4.97,4.9723,4.9734,4.9628,4.9629,4.9631,4.9701,0,4.9741,4.9765,4.973,4.9763,4.9769,4.9721,4.9735,4.9722,4.9703,4.9706,4.9684,4.9688,4.965,4.9647,4.9661,4.9639,4.9674,4.9633,4.9639,4.964,4.9645,4.9746,4.977,4.9838,4.971,4.9711,4.9712,0,4.9827,4.982,4.9853,4.9827,4.9828,4.9841,4.9834,4.9837,4.9822,4.9806,4.9801,4.9769,4.9783,4.9742,4.9761,4.9734,4.9735,4.9725,4.9726,4.9726,4.968,4.9748,4.9858,4.9869,4.9725,4.9724,4.9723,0,4.9912,4.9911,4.9931,4.9926,4.9895,4.9906,4.9894,4.9876,4.9875,4.9869,4.9868,4.9863,4.9861,4.9858,4.9827,4.9799,4.985,4.9806,4.9838,4.9839,4.9851,4.985,4.9963,4.9851,4.9851,4.9851,4.985,0,4.9995,5.0017,4.9969,4.9981,5.0004,4.9965,4.9989,4.9972,4.9957,4.9965,4.9924,4.9933,4.989,4.9894,4.9869,4.9889,4.9888,4.9877,4.987,4.988,4.9882,4.988,4.9875,4.9853,4.9853,4.9852,4.9852,0,5.0094,5.0062,5.0081,5.005,5.0043,5.0062,5.0037,5.0047,5.0025,5.0036,5.0036,5.0002,5.0005,4.9973,4.997,4.9953,4.9984,4.9969,4.999,4.9985,5.0019,5.0016,5.0134,5.0148,5.0028,5.0029,5.003,0,5.0149,5.0165,5.0136,5.0139,5.0129,5.0133,5.0132,5.0094,5.0094,5.0078,5.009,5.009,5.0087,5.0094,5.007,5.0067,5.0052,5.0093,5.0051,5.0061,5.0053,5.0052,5.0054,5.0102,5.0104,5.0105,5.0106,0,5.0251,5.0234,5.0234,5.0228,5.0228,5.0221,5.0212,5.0217,5.0175,5.0178,5.018,5.0179,5.0175,5.0176,5.0168,5.0156,5.0125,5.0119,5.0127,5.0138,5.0149,5.0144,5.0014,5.0117,5.0116,5.0115,5.0114,5.0114,5.0329,5.0341,5.0323,5.0324,5.0313,5.0306,5.0314,5.0293,5.0294,5.0288,5.0266,5.0272,5.0256,5.0243,5.0234,5.0239,5.0219,5.0229,5.0232,5.0235,5.0242,5.0148,5.0237,5.0237,5.0237,5.0236,5.0236,0,5.0429,5.0415,5.0416,5.0405,5.0406,5.0375,5.0364,5.0367,5.0373,5.036,5.0359,5.0362,5.0362,5.0337,5.0334,5.0343,5.0328,5.0343,5.0342,5.034,5.026,5.0254,5.0355,5.0355,5.0355,5.0355,5.0355,5.0355,5.0481,5.0499,5.0481,5.0494,5.0479,5.0485,5.0481,5.0475,5.0465,5.047,5.0469,5.0453,5.0436,5.0431,5.043,5.0423,5.0424,5.0444,5.0432,5.0357,5.0346,5.0335,5.0329,5.0444,5.0445,5.0512,5.0512,5.0513]}]]